Location: Arrodets-la-Barthe
(43.0306°N, 0.2829°E)
Time: 03:22:54
(UTC+00:00)

DOVE 4 - Visible Passes

Search period start: 29 March 2023 00:00
Search period end: 08 April 2023 00:00
Orbit: 586 x 791 km, 97.8° (Epoch: 28 March)

Date Brightness Start Highest point End Pass type
(mag) Time Alt. Az. Time Alt. Az. Time Alt. Az.
30 Mar ? 23:07:30 10° N 23:07:40 11° N 23:07:40 11° N visible
31 Mar ? 23:46:27 10° N 23:46:39 11° N 23:46:39 11° N visible
01 Apr ? 22:46:55 10° NNE 22:47:01 10° NNE 22:47:01 10° NNE visible
02 Apr ? 23:25:33 10° N 23:25:58 12° N 23:25:58 12° N visible
04 Apr ? 00:04:51 10° NNW 00:04:54 10° NNW 00:04:54 10° NNW visible
04 Apr ? 23:04:47 10° N 23:05:14 13° N 23:05:14 13° N visible
05 Apr ? 23:43:40 10° N 23:44:09 12° NNW 23:44:09 12° NNW visible
06 Apr ? 22:44:07 10° NNE 22:44:28 12° NNE 22:44:28 12° NNE visible
07 Apr ? 23:22:41 10° N 23:23:22 14° N 23:23:22 14° N visible
